Weather in Jizdra

Russia / Kaluga Oblast     53°44′56″N   34°44′04″E
temp.,
°C
wind,
m/s
gust,
m/s
humid.,
%
clouds,
%
prec.,
mm/h
press.,
hPa
HPBL,
m
1 july, fri
fri100:00+14nne22800 0.0 101833
03:00+12n22770 0.0 101935
06:00+14nnw24804 0.0 101897
09:00+20nnw475825 0.0 1018551
12:00+24nne57515 0.0 10181874
15:00+24ne68496 0.0 10171750
18:00+21ne57500 0.0 1019860
21:00+14e35710 0.0 102181
2 july, sat
sat200:00+10e22760 0.0 102330
03:00+8ne11800 0.0 102410
06:00+11n23755 0.0 102572
09:00+17nne34535 0.0 1025529
12:00+21n23415 0.0 10241276
15:00+23n33385 0.0 10221469
18:00+23nnw24485 0.0 1021953
21:00+16nw34700 0.0 102148
3 july, sun
sun300:00+13nnw22830 0.0 102132
03:00+12wnw34895 0.0 102165
06:00+15wnw3988100 0.0 1020210
09:00+21nw476786 0.0 1020467
12:00+26nnw4549100 0.0 10191072
15:00+28nnw454495 0.0 10181717
18:00+27nw355681 0.0 1017639
21:00+21wnw3478100 0.0 101852
4 july, mon
mon400:00+18nw35926 0.0 101880
03:00+16nnw22955 1.2 101833
06:00+18nnw22945 0.4 101870
09:00+23nnw12715 0.4 1018395
12:00+28n12514 0.0 10171241
15:00+29n124529 0.0 10171569
18:00+28nne225398 0.1 10161092
21:00+19ene259591 5.4 1018107
5 july, tue
tue500:00+18sse349680 0.8 101884
03:00+17ssw229576 0.8 101839
06:00+18ssw239549 1.1 101894
09:00+22ssw228018 1.5 1018265
12:00+27wsw235219 1.1 10171435
15:00+29sw234399 1.1 10152499
18:00+26sw256021 0.0 1015468
21:00+21e117868 0.0 101513